Tracking 31011 objects as of 12-Jul-2025
HD Live streaming from Space Station
objects crossing your sky now

STARLINK-31848

Track STARLINK-31848 now!
10-day predictions
STARLINK-31848 is classified as:


NORAD ID: 59784
Int'l Code: 2024-093C
Perigee: 488.1 km
Apogee: 492.5 km
Inclination: 43.0 °
Period: 94.3 minutes
Semi major axis: 6861 km
RCS: Unknown
Launch date: May 18, 2024
Source: United States (US)
Launch site: AIR FORCE EASTERN TEST RANGE (AFETR)
Your satellite tracking list
Your tracking list is empty




NASA's NSSDC Master Catalog

Two Line Element Set (TLE):
1 59784U 24093C   25193.51192997  .00003255  00000-0  12788-3 0  9998
2 59784  43.0038 121.8106 0003209 266.3815  93.6669 15.27552487 66004
Source of the keplerian elements: AFSPC